Starlink 32525

operational
NORAD ID: 62121 Int'l Des: 2024-222 Owner: SPXS Country: US Constellation: starlink
LEOCIRCULAR

Über Starlink 32525

Beschreibung wird geladen...

Live-Position

3D-Globus wird geladen...

Nächste Überflüge

Höhenverlauf

Altitude vs Time

uPlot chart will show altitude changes over time

Zweizeiliger Elementsatz

1 62121U 24222H 25258.13639018 .00043956 00000-0 15962-2 0 9999
2 62121 43.0012 47.3346 0001184 273.4277 86.6439 15.27602680 45919
Epoch: 15. Sept. 2025 • Age: 28 hours

Aktueller Status

Höhe 483.5 km
Geschwindigkeit 7.63 km/s
Subsatellitenpunkt 29.05°N, 34.29°W
Startdatum 27. Nov. 2024
Alter 0.8 years
Typ internet

Technische Details

Klassifizierung Payload
Masse 730.00 kg
Trockenmasse 700.00 kg
Gesamtmasse 730.00 kg
Länge 0.30 m
Durchmesser 4.10 m
Spannweite 29.00 m
Form Box + pan
Hersteller SPXS
Bus-Typ Starlink V2M
Phasenstatus In Orbit
Besitzer/Staat SPXS/US

Große Konstellationen

Loading constellations...